AFL172 UWKD-UUEE

Flight info

Callsign AFL172
Flight time N/A
Altitude 34000
Route APTAR1H APTAR L158 DIMGI DIMGI3F
Aircraft B763/H-SDE3FGHIM3RWXY/LB1

Departure

Time 2026-04-30 18:08
Airport Kazan International Airport (UWKD)

Arrival

Time N/A
Airport Sheremetyevo International Airport (UUEE)
Time Latitude Longitude Altitude Speed Heading
2026-04-30 17:39 55.60598 49.29856 425 ft 0 kts 35°
2026-04-30 18:00 55.60607 49.29867 425 ft 2 kts 36°
2026-04-30 18:01 55.60624 49.29922 425 ft 2 kts 82°
2026-04-30 18:02 55.60555 49.30083 425 ft 7 kts 168°
2026-04-30 18:02 55.60366 49.29908 425 ft 13 kts 201°
2026-04-30 18:03 55.60050 49.30064 425 ft 17 kts 153°
2026-04-30 18:04 55.59925 49.30110 425 ft 0 kts 198°
2026-04-30 18:05 55.59916 49.30104 425 ft 0 kts 200°
2026-04-30 18:06 55.59863 49.29849 425 ft 10 kts 302°
2026-04-30 18:07 55.61266 49.26275 943 ft 182 kts 303°
2026-04-30 18:08 55.60691 49.19727 2362 ft 220 kts 255°
2026-04-30 18:09 55.61853 49.07766 4640 ft 260 kts 279°
2026-04-30 18:10 55.62933 48.94995 7902 ft 269 kts 277°
2026-04-30 18:11 55.63955 48.81676 10604 ft 299 kts 276°
2026-04-30 18:11 55.64825 48.70148 12702 ft 323 kts 275°
2026-04-30 18:12 55.65708 48.58262 15101 ft 329 kts 274°
2026-04-30 18:13 55.66298 48.50209 16547 ft 335 kts 273°
2026-04-30 18:13 55.67093 48.39244 18391 ft 342 kts 272°
2026-04-30 18:14 55.67795 48.29473 20050 ft 346 kts 271°
2026-04-30 18:15 55.68692 48.16783 22063 ft 352 kts 271°
2026-04-30 18:15 55.69598 48.03773 23868 ft 359 kts 270°
2026-04-30 18:16 55.70204 47.94965 24939 ft 364 kts 270°
2026-04-30 18:16 55.70813 47.85983 25709 ft 373 kts 270°
2026-04-30 18:17 55.71121 47.81419 26084 ft 376 kts 270°
2026-04-30 18:17 55.71428 47.76836 26441 ft 380 kts 271°
2026-04-30 18:17 55.72053 47.67444 27081 ft 389 kts 271°
2026-04-30 18:18 55.72370 47.62636 27405 ft 393 kts 271°
2026-04-30 18:18 55.72684 47.57835 27666 ft 397 kts 271°
2026-04-30 18:18 55.73002 47.52960 27939 ft 400 kts 271°
2026-04-30 18:18 55.73317 47.48091 28218 ft 403 kts 272°
2026-04-30 18:19 55.73636 47.43144 28449 ft 407 kts 272°
2026-04-30 18:19 55.73951 47.38201 28712 ft 409 kts 272°
2026-04-30 18:19 55.74275 47.33099 28965 ft 413 kts 271°
2026-04-30 18:19 55.74591 47.28077 29198 ft 416 kts 271°
2026-04-30 18:20 55.74910 47.22990 29436 ft 419 kts 272°
2026-04-30 18:20 55.75234 47.17786 29660 ft 422 kts 272°
2026-04-30 18:20 55.75551 47.12653 29885 ft 425 kts 272°
2026-04-30 18:20 55.75873 47.07396 30106 ft 428 kts 272°
2026-04-30 18:21 55.76190 47.02197 30325 ft 430 kts 273°
2026-04-30 18:21 55.76510 46.96914 30494 ft 434 kts 273°
2026-04-30 18:21 55.76830 46.91580 30699 ft 437 kts 273°
2026-04-30 18:21 55.77152 46.86174 30897 ft 439 kts 273°
2026-04-30 18:22 55.77468 46.80832 31126 ft 440 kts 273°
2026-04-30 18:22 55.78097 46.70088 31615 ft 440 kts 273°
2026-04-30 18:22 55.78411 46.64657 31848 ft 440 kts 273°
2026-04-30 18:23 55.78719 46.59277 32086 ft 441 kts 273°
2026-04-30 18:23 55.79026 46.53887 32333 ft 441 kts 274°
2026-04-30 18:23 55.79332 46.48460 32558 ft 442 kts 274°
2026-04-30 18:23 55.79561 46.43049 32788 ft 441 kts 271°
2026-04-30 18:24 55.79910 46.32260 33260 ft 441 kts 270°
2026-04-30 18:24 55.80087 46.26800 33491 ft 441 kts 271°
2026-04-30 18:24 55.80259 46.21444 33728 ft 442 kts 271°
2026-04-30 18:25 55.80431 46.16004 33966 ft 442 kts 271°
2026-04-30 18:25 55.80769 46.05124 34109 ft 441 kts 271°
2026-04-30 18:25 55.80932 45.99726 34115 ft 445 kts 271°
2026-04-30 18:26 55.81263 45.88575 34109 ft 456 kts 271°
2026-04-30 18:26 55.81426 45.82958 34119 ft 460 kts 271°
2026-04-30 18:27 55.81908 45.65839 34107 ft 464 kts 271°
2026-04-30 18:28 55.82363 45.48803 34113 ft 463 kts 271°
2026-04-30 18:28 55.82800 45.31560 34118 ft 466 kts 270°
2026-04-30 18:29 55.83341 45.08688 34122 ft 465 kts 271°
2026-04-30 18:30 55.83849 44.85789 34128 ft 466 kts 271°
2026-04-30 18:31 55.84209 44.68573 34128 ft 467 kts 271°
2026-04-30 18:32 55.84547 44.51285 34131 ft 468 kts 271°
2026-04-30 18:33 55.84861 44.33928 34130 ft 475 kts 270°
2026-04-30 18:33 55.85155 44.16352 34126 ft 474 kts 270°
2026-04-30 18:34 55.85422 43.98817 34123 ft 474 kts 271°
2026-04-30 18:35 55.85586 43.87177 34126 ft 474 kts 271°
2026-04-30 18:35 55.85739 43.75497 34128 ft 474 kts 271°
2026-04-30 18:36 55.85950 43.57933 34125 ft 475 kts 271°
2026-04-30 18:37 55.86141 43.40433 34126 ft 474 kts 271°
2026-04-30 18:37 55.86258 43.28727 34130 ft 474 kts 270°
2026-04-30 18:38 55.86365 43.17017 34130 ft 474 kts 271°
2026-04-30 18:38 55.86459 43.05365 34133 ft 476 kts 270°
2026-04-30 18:39 55.86544 42.93597 34133 ft 476 kts 271°
2026-04-30 18:39 55.86617 42.81870 34132 ft 476 kts 271°
2026-04-30 18:40 55.86678 42.70161 34136 ft 476 kts 271°
2026-04-30 18:40 55.86729 42.58439 34137 ft 475 kts 271°
2026-04-30 18:41 55.86768 42.46764 34142 ft 476 kts 271°
2026-04-30 18:41 55.86797 42.34971 34143 ft 478 kts 270°
2026-04-30 18:42 55.86814 42.23209 34147 ft 479 kts 270°
2026-04-30 18:42 55.86819 42.05512 34150 ft 477 kts 270°
2026-04-30 18:45 55.85638 41.40594 34142 ft 479 kts 268°
2026-04-30 18:46 55.85259 41.28799 34140 ft 478 kts 267°
2026-04-30 18:46 55.84880 41.17345 34133 ft 453 kts 267°
2026-04-30 18:47 55.84509 41.06436 34144 ft 443 kts 267°
2026-04-30 18:47 55.84123 40.95368 34160 ft 453 kts 267°
2026-04-30 18:48 55.83730 40.84389 34144 ft 437 kts 268°
2026-04-30 18:48 55.83340 40.73750 33791 ft 437 kts 268°
2026-04-30 18:48 55.83140 40.68383 33402 ft 441 kts 268°
2026-04-30 18:49 55.82933 40.62897 32997 ft 444 kts 268°
2026-04-30 18:49 55.82720 40.57475 32578 ft 441 kts 267°
2026-04-30 18:49 55.82503 40.52077 32242 ft 435 kts 267°
2026-04-30 18:49 55.82289 40.46787 31893 ft 432 kts 267°
2026-04-30 18:50 55.82071 40.41453 31555 ft 434 kts 268°
2026-04-30 18:50 55.81851 40.36112 31189 ft 437 kts 268°
2026-04-30 18:50 55.81627 40.30754 30801 ft 439 kts 266°
2026-04-30 18:50 55.81402 40.25407 30339 ft 437 kts 266°
2026-04-30 18:51 55.81172 40.20000 29831 ft 437 kts 266°
2026-04-30 18:51 55.80941 40.14632 29297 ft 439 kts 266°
2026-04-30 18:51 55.80709 40.09302 28704 ft 439 kts 266°
2026-04-30 18:51 55.80477 40.04034 28601 ft 419 kts 266°
2026-04-30 18:52 55.80249 39.98907 28295 ft 415 kts 266°
2026-04-30 18:52 55.80022 39.93828 27905 ft 413 kts 266°
2026-04-30 18:52 55.79794 39.88775 27511 ft 411 kts 266°
2026-04-30 18:52 55.79564 39.83726 27107 ft 408 kts 266°
2026-04-30 18:53 55.79299 39.78753 26768 ft 402 kts 264°
2026-04-30 18:53 55.78970 39.73870 26430 ft 398 kts 264°
2026-04-30 18:53 55.78654 39.69109 26321 ft 386 kts 264°
2026-04-30 18:53 55.78340 39.64390 26257 ft 387 kts 264°
2026-04-30 18:54 55.78016 39.59555 26236 ft 398 kts 264°
2026-04-30 18:54 55.77689 39.54689 26155 ft 404 kts 265°
2026-04-30 18:54 55.77352 39.49729 25977 ft 402 kts 264°
2026-04-30 18:54 55.77024 39.44919 26039 ft 391 kts 265°
2026-04-30 18:55 55.76696 39.40126 26037 ft 393 kts 264°
2026-04-30 18:55 55.75996 39.30380 25739 ft 399 kts 263°
2026-04-30 18:55 55.75637 39.25490 25167 ft 401 kts 263°
2026-04-30 18:56 55.74907 39.15929 24535 ft 389 kts 262°
2026-04-30 18:56 55.74467 39.11225 24157 ft 385 kts 261°
2026-04-30 18:56 55.74023 39.06555 23754 ft 380 kts 261°
2026-04-30 18:57 55.73140 38.97435 22983 ft 378 kts 261°
2026-04-30 18:57 55.72692 38.92868 22521 ft 374 kts 261°
2026-04-30 18:57 55.72248 38.88409 22093 ft 363 kts 261°
2026-04-30 18:58 55.71374 38.79700 21366 ft 359 kts 261°
2026-04-30 18:58 55.70933 38.75360 20970 ft 358 kts 261°
2026-04-30 18:58 55.70491 38.71034 20570 ft 355 kts 261°
2026-04-30 18:59 55.69616 38.62511 19763 ft 351 kts 261°
2026-04-30 19:00 55.68296 38.49797 18458 ft 347 kts 262°
2026-04-30 19:00 55.67862 38.45658 18044 ft 346 kts 262°
2026-04-30 19:00 55.66991 38.37316 17142 ft 343 kts 262°
2026-04-30 19:01 55.66131 38.29059 16271 ft 340 kts 261°
2026-04-30 19:01 55.65708 38.25000 15848 ft 338 kts 261°
2026-04-30 19:02 55.64863 38.16890 14996 ft 335 kts 261°
2026-04-30 19:02 55.64020 38.08867 14145 ft 331 kts 261°
2026-04-30 19:03 55.63182 38.01032 13242 ft 318 kts 261°
2026-04-30 19:03 55.62984 37.93494 12414 ft 302 kts 288°
2026-04-30 19:04 55.65332 37.87797 11670 ft 292 kts 334°
2026-04-30 19:04 55.69286 37.86789 10919 ft 291 kts
2026-04-30 19:05 55.73283 37.86904 10088 ft 288 kts
2026-04-30 19:05 55.77285 37.87036 9211 ft 289 kts
2026-04-30 19:06 55.81268 37.86741 8365 ft 290 kts 344°
2026-04-30 19:06 55.83192 37.85642 7726 ft 290 kts 342°
2026-04-30 19:06 55.86939 37.83420 6542 ft 279 kts 342°
2026-04-30 19:07 55.90546 37.81296 5383 ft 271 kts 342°
2026-04-30 19:07 55.92325 37.80257 4804 ft 268 kts 342°
2026-04-30 19:08 55.95790 37.78255 3691 ft 261 kts 342°
2026-04-30 19:08 55.99225 37.76286 2589 ft 256 kts 342°
2026-04-30 19:08 56.00774 37.75034 2442 ft 237 kts 320°
2026-04-30 19:09 56.01800 37.70242 2494 ft 199 kts 261°
2026-04-30 19:09 56.01379 37.68012 2503 ft 179 kts 249°
2026-04-30 19:09 56.00938 37.65969 2475 ft 177 kts 254°
2026-04-30 19:10 56.00280 37.62272 2475 ft 142 kts 258°
2026-04-30 19:10 55.99715 37.58683 2338 ft 155 kts 258°
2026-04-30 19:11 55.99435 37.56858 2113 ft 146 kts 257°
2026-04-30 19:11 55.98934 37.53530 1710 ft 140 kts 259°
2026-04-30 19:11 55.98681 37.51810 1549 ft 145 kts 259°
2026-04-30 19:12 55.98427 37.50105 1351 ft 141 kts 258°
2026-04-30 19:12 55.98183 37.48461 1150 ft 136 kts 257°
2026-04-30 19:12 55.97931 37.46799 957 ft 140 kts 257°
2026-04-30 19:13 55.97448 37.43470 666 ft 132 kts 254°
2026-04-30 19:13 55.97044 37.40841 640 ft 66 kts 255°